This is the latest recevied weather packets stored in our database for station/object N4ASP-13. If no packets are shown the sender has not sent any weather packets the latest 10 day(s).
| Time | Temp. | Humidity | Pressure | Rain* | Wind** | Luminosity | Snow |
|---|---|---|---|---|---|---|---|
| 1778189442 | 16.67° C | 83% | 1010 hPa | 0 mm | - | 141 W/m² | - |
| 1778189383 | 16.67° C | 83% | 1009.9 hPa | 0 mm | - | 153 W/m² | - |
| 1778189321 | 16.67° C | 83% | 1009.8 hPa | 0 mm | - | 213 W/m² | - |
| 1778189259 | 16.67° C | 83% | 1009.8 hPa | 0 mm | - | 199 W/m² | - |
| 1778189194 | 16.67° C | 83% | 1009.8 hPa | 0 mm | - | 199 W/m² | - |
| 1778189132 | 16.67° C | 83% | 1009.7 hPa | 0 mm | - | 199 W/m² | - |
| 1778189073 | 16.67° C | 83% | 1009.8 hPa | 0 mm | - | 185 W/m² | - |
| 1778189014 | 16.67° C | 84% | 1009.7 hPa | 0 mm | - | 202 W/m² | - |
| 1778188953 | 16.67° C | 84% | 1009.8 hPa | 0 mm | - | 202 W/m² | - |
| 1778188883 | 16.67° C | 85% | 1009.8 hPa | 0 mm | - | 202 W/m² | - |
| 1778188822 | 16.67° C | 84% | 1009.8 hPa | 0 mm | - | 202 W/m² | - |
| 1778188763 | 16.67° C | 84% | 1009.8 hPa | 0 mm | - | 202 W/m² | - |
| 1778188704 | 16.67° C | 84% | 1009.9 hPa | 0 mm | - | 185 W/m² | - |
| 1778188643 | 16.67° C | 84% | 1009.9 hPa | 0 mm | - | 202 W/m² | - |
| 1778188579 | 16.67° C | 84% | 1009.8 hPa | 0 mm | - | 185 W/m² | - |
| 1778188517 | 16.67° C | 84% | 1009.9 hPa | 0 mm | - | 169 W/m² | - |
| 1778188457 | 16.67° C | 84% | 1009.7 hPa | 0 mm | - | 171 W/m² | - |
| 1778188396 | 16.67° C | 84% | 1009.7 hPa | 0 mm | - | 218 W/m² | - |
| 1778188337 | 16.67° C | 84% | 1009.6 hPa | 0 mm | - | 218 W/m² | - |
| 1778188276 | 16.67° C | 84% | 1009.6 hPa | 0 mm | - | 218 W/m² | - |
| 1778188215 | 16.67° C | 84% | 1009.6 hPa | 0 mm | - | 218 W/m² | - |
| 1778188154 | 16.67° C | 84% | 1009.7 hPa | 0 mm | - | 443 W/m² | - |
| 1778188092 | 16.67° C | 84% | 1009.7 hPa | 0 mm | - | 443 W/m² | - |
| 1778188031 | 16.67° C | 84% | 1009.6 hPa | 0 mm | - | 443 W/m² | - |
| 1778187962 | 16.67° C | 85% | 1009.5 hPa | 0 mm | - | 443 W/m² | - |
* Rain latest hour (hover to see other rain measurements)
** Current wind speed in m/s (hover to see current wind gust speed)